Camarillo, CA

7:20 PM PDT on May 28, 2017 (GMT -0700)
Camarillo

Weather History for KCMA - November, 2012

Change the Weather History Date:

Friday, November 30, 2012

  Actual Average Record
Temperature  
Mean Temperature 64 °F 55 °F  
Max Temperature 68 °F 68 °F 86 °F (1977)
Min Temperature 59 °F 43 °F 32 °F (2004)
Degree Days  
Heating Degree Days 1 10  
Month to date heating degree days 152 211  
Since 1 July heating degree days 227 332  
Cooling Degree Days 0 0  
Month to date cooling degree days 21 14  
Year to date cooling degree days 387 330  
Growing Degree Days 14 (Base 50)    
Moisture  
Dew Point 60 °F    
Average Humidity 86    
Maximum Humidity 93    
Minimum Humidity 78    
Precipitation  
Precipitation 0.24 in 0.03 in 1.40 in (1982)
Month to date precipitation 1.08 1.31  
Year to date precipitation 6.80 13.16  
Since 1 July precipitation 1.12  
Sea Level Pressure  
Sea Level Pressure 30.12 in    
Wind  
Wind Speed 3 mph (East)    
Max Wind Speed 10 mph    
Max Gust Speed 14 mph    
Visibility 5 miles    
Events Rain    
T = Trace of Precipitation, MM = Missing Value Source: NWS Daily Summary

Daily Weather History Graph

Daily Weather History Graph

Search for Another Location

Airport or City:

Trip Planner

Search our weather history database for the weather conditions in past years. The results will help you decide how hot, cold, wet, or windy it might be!

Date:

Astronomy

Nov. 30, 2012 Rise Set
Actual Time 6:43 AM PST 4:46 PM PST
Civil Twilight 6:16 AM PST 5:14 PM PST
Nautical Twilight 5:45 AM PST 5:45 PM PST
Astronomical Twilight 5:15 AM PST 6:15 PM PST
Moon 6:45 PM PST (11/30) 8:19 AM PST (11/30)
Length of Visible Light 10h 57m
Length of Day
10h 02m
Waning Gibbous, 96% of the Moon is Illuminated
Nov 30
Waning Gibbous
Dec 6
Last Quarter
Dec 13
New
Dec 19
First Quarter
Dec 28
Full

Hourly Weather History & Observations

Time (PST) Temp. Dew Point Humidity Pressure Visibility Wind Dir Wind Speed Gust Speed Precip Events Conditions
12:55 AM 63.0 °F 60.1 °F 90% 30.15 in 5.0 mi Calm Calm - 0.00 in Rain Light Rain
1:12 AM 62.6 °F 60.8 °F 94% 30.12 in 2.5 mi Calm Calm - 0.01 in Rain Light Rain
1:24 AM 62.6 °F 60.8 °F 94% 30.12 in 2.0 mi East 3.5 mph - 0.03 in Rain Rain
1:32 AM 62.6 °F 60.8 °F 94% 30.11 in 3.0 mi East 3.5 mph - 0.03 in Rain Light Rain
1:55 AM 63.0 °F 60.1 °F 90% 30.13 in 7.0 mi ENE 3.5 mph - 0.03 in   Overcast
2:03 AM 62.6 °F 60.8 °F 94% 30.11 in 8.0 mi NE 4.6 mph - 0.00 in Rain Light Rain
2:37 AM 62.6 °F 60.8 °F 94% 30.10 in 6.0 mi Calm Calm - 0.01 in Rain Light Rain
2:55 AM 63.0 °F 60.1 °F 90% 30.13 in 6.0 mi Calm Calm - 0.02 in Rain Light Rain
3:12 AM 62.6 °F 60.8 °F 94% 30.10 in 1.8 mi Calm Calm - 0.02 in Rain Rain
3:23 AM 62.6 °F 60.8 °F 94% 30.10 in 3.0 mi Calm Calm - 0.03 in Rain Light Rain
3:55 AM 63.0 °F 60.1 °F 90% 30.12 in 10.0 mi Calm Calm - 0.04 in   Overcast
4:30 AM 62.6 °F 60.8 °F 94% 30.08 in 8.0 mi NE 5.8 mph - N/A   Overcast
4:55 AM 63.0 °F 60.1 °F 90% 30.10 in 9.0 mi ENE 4.6 mph - 0.00 in   Overcast
5:39 AM 62.6 °F 60.8 °F 94% 30.08 in 4.0 mi Calm Calm - 0.01 in Rain Rain
5:48 AM 62.6 °F 60.8 °F 94% 30.08 in 2.0 mi ENE 4.6 mph - 0.03 in Rain Rain
5:55 AM 63.0 °F 60.1 °F 90% 30.11 in 2.5 mi ENE 4.6 mph - 0.04 in Rain Light Rain
6:23 AM 62.6 °F 60.8 °F 94% 30.09 in 2.5 mi Calm Calm - 0.03 in Rain Light Rain
6:42 AM 62.6 °F 60.8 °F 94% 30.10 in 4.0 mi Calm Calm - 0.05 in Rain Light Rain
6:55 AM 63.0 °F 60.1 °F 90% 30.13 in 3.0 mi NNE 3.5 mph - 0.05 in Rain Light Rain
7:12 AM 62.6 °F 60.8 °F 94% 30.11 in 1.8 mi Calm Calm - N/A   Overcast
7:18 AM 62.6 °F 60.8 °F 94% 30.11 in 1.5 mi WNW 3.5 mph - 0.00 in Rain Light Rain
7:27 AM 62.6 °F 60.8 °F 94% 30.11 in 2.0 mi Calm Calm - 0.00 in Rain Light Rain
7:32 AM 62.6 °F 60.8 °F 94% 30.11 in 3.0 mi Calm Calm - 0.00 in   Overcast
7:39 AM 62.6 °F 60.8 °F 94% 30.11 in 2.0 mi Calm Calm - 0.01 in Rain Light Rain
7:55 AM 63.0 °F 61.0 °F 93% 30.14 in 2.0 mi Calm Calm - 0.01 in Rain Light Rain
8:20 AM 62.6 °F 60.8 °F 94% 30.11 in 1.5 mi Calm Calm - 0.02 in Rain Light Rain
8:31 AM 64.4 °F 60.8 °F 88% 30.11 in 2.0 mi Calm Calm - 0.05 in Rain Rain
8:38 AM 64.4 °F 60.8 °F 88% 30.11 in 1.5 mi Calm Calm - 0.05 in Rain Light Rain
8:55 AM 64.0 °F 62.1 °F 93% 30.15 in 7.0 mi Calm Calm - 0.05 in   Overcast
9:55 AM 64.9 °F 62.1 °F 90% 30.15 in 10.0 mi Calm Calm - N/A   Overcast
10:33 AM 66.2 °F 62.6 °F 88% 30.13 in 5.0 mi SSW 5.8 mph - N/A   Overcast
10:55 AM 66.0 °F 63.0 °F 90% 30.16 in 5.0 mi SSW 5.8 mph - N/A   Overcast
11:40 AM 66.2 °F 62.6 °F 88% 30.12 in 7.0 mi Calm Calm - N/A   Overcast
11:55 AM 66.9 °F 61.0 °F 81% 30.14 in 7.0 mi Variable 4.6 mph - N/A   Overcast
12:55 PM 66.9 °F 62.1 °F 84% 30.13 in 10.0 mi SW 5.8 mph - N/A   Overcast
1:40 PM 68.0 °F 62.6 °F 83% 30.10 in 10.0 mi SSW 6.9 mph - 0.00 in   Mostly Cloudy
1:55 PM 68.0 °F 62.1 °F 81% 30.12 in 10.0 mi SW 5.8 mph - 0.00 in   Mostly Cloudy
2:20 PM 68.0 °F 62.6 °F 83% 30.10 in 10.0 mi WSW 8.1 mph - N/A   Mostly Cloudy
2:55 PM 66.9 °F 61.0 °F 81% 30.13 in 10.0 mi West 8.1 mph - N/A   Mostly Cloudy
3:46 PM 66.2 °F 59.0 °F 78% 30.09 in 10.0 mi Calm Calm - N/A   Mostly Cloudy
3:55 PM 66.0 °F 59.0 °F 78% 30.11 in 10.0 mi Calm Calm - N/A   Mostly Cloudy
4:55 PM 64.0 °F 59.0 °F 84% 30.09 in 10.0 mi WSW 3.5 mph - N/A   Partly Cloudy
5:55 PM 63.0 °F 59.0 °F 87% 30.11 in 10.0 mi SSW 3.5 mph - N/A   Clear
6:55 PM 61.0 °F 57.9 °F 90% 30.13 in 7.0 mi Calm Calm - N/A   Clear
7:21 PM 60.8 °F 59.0 °F 94% 30.11 in 6.0 mi Calm Calm - N/A   Partly Cloudy
7:55 PM 61.0 °F 59.0 °F 93% 30.14 in 3.0 mi Calm Calm - N/A   Scattered Clouds
9:31 PM 59.0 °F 57.2 °F 94% 30.12 in 2.5 mi NNE 5.8 mph - N/A   Clear
9:39 PM 60.8 °F 57.2 °F 88% 30.13 in 4.0 mi NNE 3.5 mph - N/A   Scattered Clouds
9:55 PM 61.0 °F 57.9 °F 90% 30.16 in 3.0 mi NE 3.5 mph - N/A   Mostly Cloudy
10:11 PM 60.8 °F 59.0 °F 94% 30.14 in 4.0 mi Calm Calm - N/A   Overcast
10:55 PM 60.1 °F 57.9 °F 93% 30.17 in 5.0 mi SE 3.5 mph - N/A   Overcast
11:40 PM 60.8 °F 57.2 °F 88% 30.14 in 6.0 mi East 4.6 mph - N/A   Overcast
11:55 PM 61.0 °F 59.0 °F 93% 30.17 in 7.0 mi ENE 5.8 mph - N/A   Overcast